Terminal Aerodrome Forecast
Issued by NWS

Home | Current Version | Previous Version | Text Only | Print | Product List | Glossary On
Versions: 1 2 3 4 5 6 7 8 9 10 11 12 13 14
000
FTUS44 KBMX 021100
TAFTOI
TAF
KTOI 021140Z 0212/0312 00000KT 1/4SM FG VV002
     FM021500 VRB03KT 5SM -SHRA BR OVC007=

USA.gov is the U.S. government's official web portal to all federal, state and local government web resources and services.